Location: Vancouver
(49.2500°N, 123.1330°W)
Time: 06:51:02
(UTC-08:00)

Cosmos 676 Rocket - Visible Passes

Search period start: 13 December 2017 00:00
Search period end: 23 December 2017 00:00
Orbit: 755 x 783 km, 74.0° (Epoch: 12 December)

Date Brightness Start Highest point End Pass type
(mag) Time Alt. Az. Time Alt. Az. Time Alt. Az.
19 Dec 6.2 18:23:41 10° N 18:23:52 10° NNE 18:23:52 10° NNE visible
20 Dec 6.3 19:27:52 10° NNW 19:28:27 13° N 19:28:27 13° N visible
21 Dec 5.9 18:51:28 10° N 18:52:47 16° N 18:52:47 16° N visible
22 Dec 5.7 18:15:13 10° N 18:17:13 17° NNE 18:17:13 17° NNE visible
22 Dec 6.3 19:56:32 10° NNW 19:57:32 16° NNW 19:57:32 16° NNW visible
